Weather in Myryla

Russia / Sakha (Yakutia) Republic     61°50′05″N   133°38′35″E
temp.,
°C
wind,
m/s
gust,
m/s
humid.,
%
clouds,
%
prec.,
mm/h
press.,
hPa
HPBL,
m
24 may, tue
tue2400:00+5s1172100 0.0 101011
03:00+3s227571 0.0 101140
06:00+8ssw11675 0.0 1010182
09:00+13s334755 0.0 10091366
12:00+14ssw3535100 0.0 10082207
15:00+15ssw4838100 0.0 10052495
18:00+10ssw31085100 1.3 1003888
21:00+9sw41095100 8.1 1002719
25 may, wed
wed2500:00+5w3109076 1.4 1004613
03:00+4wsw41095100 1.5 1004646
06:00+5wsw3688100 0.1 1004621
09:00+5wsw4681100 0.4 1002877
12:00+3wnw1397100 3.9 1002346
15:00+4wnw369198 5.2 1002569
18:00+7wnw277286 0.1 10011345
21:00+3wnw41074100 0.3 1004549
26 may, thu
thu2600:000wsw3108997 0.0 1004405
03:000wsw3693100 0.0 1004505
06:00+1wsw1395100 0.3 1004218
09:00+3wnw2273100 0.3 1005917
12:00+4wnw237797 0.1 1005741
15:00+7wnw3466100 0.2 10051036
18:00+7wnw246597 0.0 1006554
21:00+3w119064 0.0 100710
27 may, fri
fri2700:00+3wsw1188100 0.0 100722
03:00+3wsw1191100 0.0 100717
06:00+4wsw0186100 0.0 100873
09:00+8wsw116980 0.0 1008561
12:00+10nnw216299 0.3 10081139
15:00+10ene337099 0.9 1008829
18:00+10ene236936 0.4 1009881
21:00+5ene229352 0.7 101032
28 may, sat
sat2800:00+4ene1194100 0.0 101014
03:00+3ene1192100 0.0 101115
06:00+6ne1484100 0.0 1010157
09:00+8e3681100 0.8 1011855
12:00+8e4780100 0.8 1011974
15:00+6e3694100 2.8 1012518
18:00+5ene2697100 1.0 1012258
21:00+5ene2896100 1.3 1013281